DW0231 Weather Reports


time (UTC)temp
C
wind
direction
speed
KPH
gust
KPH
rain 1hr
cm
rain 24hr
cm
rain mn
cm
humidity
%
barometer
mb
20260508191509 22 198 4.8 0.0 0.00 0.00 0.00 27 1011.2
20260508190057 21 209 4.8 0.0 0.00 0.00 0.00 26 1011.5
20260508184551 21 244 4.8 0.0 0.00 0.00 0.00 26 1011.5
20260508183024 21 217 4.8 0.0 0.00 0.00 0.00 27 1011.7
20260508181510 21 177 4.8 0.0 0.00 0.00 0.00 26 1011.7
20260508180100 21 163 1.6 0.0 0.00 0.00 0.00 28 1011.7
20260508174547 21 163 3.2 0.0 0.00 0.00 0.00 29 1011.8
20260508173020 21 186 4.8 0.0 0.00 0.00 0.00 32 1011.8
20260508171555 21 57 1.6 0.0 0.00 0.00 0.00 28 1011.7
20260508170058 21 29 3.2 0.0 0.00 0.00 0.00 29 1011.7
20260508164544 20 29 3.2 0.0 0.00 0.00 0.00 32 1011.6
20260508163002 20 37 1.6 0.0 0.00 0.00 0.00 33 1011.6
20260508161603 20 39 1.6 0.0 0.00 0.00 0.00 34 1011.5
20260508160048 20 29 1.6 0.0 0.00 0.00 0.00 33 1011.3
20260508154543 19 29 0.0 0.0 0.00 0.00 0.00 38 1011.4
20260508153004 18 29 0.0 0.0 0.00 0.00 0.00 37 1011.3
20260508151558 18 29 0.0 0.0 0.00 0.00 0.00 39 1011.3
20260508150037 16 29 0.0 0.0 0.00 0.00 0.00 43 1011.3
20260508144524 15 29 0.0 0.0 0.00 0.00 0.00 49 1011.2
20260508143018 14 29 0.0 0.0 0.00 0.00 0.00 48 1011.3
20260508141603 13 29 0.0 0.0 0.00 0.00 0.00 51 1011.1
20260508140047 12 29 0.0 0.0 0.00 0.00 0.00 56 1011.2
20260508134520 11 29 0.0 0.0 0.00 0.00 0.00 61 1011.2
20260508133105 10 29 0.0 0.0 0.00 0.00 0.00 61 1010.9
20260508131552 9 29 0.0 0.0 0.00 0.00 0.00 60 1010.8
20260508130042 9 29 0.0 0.0 0.00 0.00 0.00 60 1010.6
20260508124529 9 29 0.0 0.0 0.00 0.00 0.00 60 1010.4
20260508123019 9 29 0.0 0.0 0.00 0.00 0.00 60 1010.3
20260508121611 9 29 0.0 0.0 0.00 0.00 0.00 58 1010.0
20260508120037 10 29 0.0 0.0 0.00 0.00 0.00 58 1010.0
20260508114526 10 29 0.0 0.0 0.00 0.00 0.00 58 1009.9
20260508113008 10 29 0.0 0.0 0.00 0.00 0.00 58 1009.7
20260508111611 10 29 0.0 0.0 0.00 0.00 0.00 57 1009.6
20260508110050 10 29 0.0 0.0 0.00 0.00 0.00 57 1009.7
20260508104526 10 29 0.0 0.0 0.00 0.00 0.00 56 1009.8
20260508103014 10 29 0.0 0.0 0.00 0.00 0.00 56 1009.9
20260508101515 10 29 0.0 0.0 0.00 0.00 0.00 55 1009.7
20260508100006 10 29 0.0 0.0 0.00 0.00 0.00 55 1009.8
20260508094600 11 29 0.0 0.0 0.00 0.00 0.00 54 1009.7
20260508093029 10 29 0.0 0.0 0.00 0.00 0.00 55 1009.6
20260508091536 10 29 0.0 0.0 0.00 0.00 0.00 55 1009.6
20260508090004 10 29 0.0 0.0 0.00 0.00 0.00 55 1009.8
20260508084555 11 29 0.0 0.0 0.00 0.00 0.00 55 1009.7
20260508083038 11 29 0.0 0.0 0.00 0.00 0.00 54 1009.9
20260508081532 11 29 0.0 0.0 0.00 0.00 0.00 52 1009.7
20260508080112 11 29 0.0 0.0 0.00 0.00 0.00 51 1009.8
20260508074504 12 29 0.0 0.0 0.00 0.00 0.00 51 1009.9
20260508073109 12 29 0.0 0.0 0.00 0.00 0.00 49 1009.5
20260508071602 12 29 0.0 0.0 0.00 0.00 0.00 49 1009.5
20260508070052 12 29 0.0 0.0 0.00 0.00 0.00 48 1009.5
20260508064533 12 29 0.0 0.0 0.00 0.00 0.00 47 1009.4
20260508063005 13 29 0.0 0.0 0.00 0.00 0.00 47 1009.3
20260508061605 13 29 0.0 0.0 0.00 0.00 0.00 46 1009.5
20260508060058 13 29 0.0 0.0 0.00 0.00 0.00 45 1009.4
20260508054608 13 29 0.0 0.0 0.00 0.00 0.00 45 1009.1
20260508053016 13 29 0.0 0.0 0.00 0.00 0.00 45 1009.2
20260508051559 13 29 0.0 0.0 0.00 0.00 0.00 46 1009.4
20260508050047 14 29 0.0 0.0 0.00 0.00 0.00 45 1009.3
20260508044539 14 29 0.0 0.0 0.00 0.00 0.00 44 1009.5
20260508043026 15 29 0.0 0.0 0.00 0.00 0.00 43 1009.3
20260508041520 15 29 0.0 0.0 0.00 0.00 0.00 42 1009.3
20260508040103 16 29 0.0 0.0 0.00 0.00 0.00 40 1009.0
20260508034548 16 29 0.0 0.0 0.00 0.00 0.00 39 1008.9
20260508033036 16 29 0.0 0.0 0.00 0.00 0.00 38 1009.0
20260508031538 16 29 0.0 0.0 0.00 0.00 0.00 40 1008.8
20260508030028 17 29 0.0 0.0 0.00 0.00 0.00 38 1008.7
20260508024514 18 29 0.0 0.0 0.00 0.00 0.00 38 1008.7
20260508023102 18 29 0.0 0.0 0.00 0.00 0.00 37 1008.7
20260508021556 20 29 0.0 0.0 0.00 0.00 0.00 33 1008.7
20260508014536 22 29 0.0 0.0 0.00 0.00 0.00 28 1008.4
20260508013014 22 29 1.6 0.0 0.00 0.00 0.00 28 1008.6
20260508011521 22 29 0.0 0.0 0.00 0.00 0.00 30 1008.7
20260508010116 22 29 1.6 0.0 0.00 0.00 0.00 28 1008.8
20260508004551 22 29 3.2 0.0 0.00 0.00 0.00 27 1008.9
20260508003047 22 29 0.0 0.0 0.00 0.00 0.00 30 1009.3
20260508001544 22 29 0.0 0.0 0.00 0.00 0.00 28 1009.1
20260508000025 22 29 0.0 0.0 0.00 0.00 0.00 26 1009.3
20260507234505 22 29 0.0 0.0 0.00 0.00 0.00 27 1009.7
20260507233052 23 29 1.6 0.0 0.00 0.00 0.00 26 1009.8
20260507231539 23 29 1.6 0.0 0.00 0.00 0.00 26 1010.1
20260507230025 23 29 3.2 0.0 0.00 0.00 0.00 25 1010.5
20260507224507 23 32 3.2 0.0 0.00 0.00 0.00 26 1010.6
20260507223005 23 333 1.6 0.0 0.00 0.00 0.00 27 1011.0
20260507221541 23 308 3.2 0.0 0.00 0.00 0.00 26 1011.1
20260507220008 23 32 1.6 0.0 0.00 0.00 0.00 25 1011.3
20260507214556 23 32 3.2 0.0 0.00 0.00 0.00 26 1011.5
20260507213019 23 236 3.2 0.0 0.00 0.00 0.00 25 1011.6
20260507211514 23 236 3.2 0.0 0.00 0.00 0.00 25 1011.8
20260507210055 22 240 3.2 0.0 0.00 0.00 0.00 24 1012.3
20260507204543 22 237 3.2 0.0 0.00 0.00 0.00 25 1012.5
20260507203021 23 240 3.2 0.0 0.00 0.00 0.00 24 1012.6
20260507201505 22 299 1.6 0.0 0.00 0.00 0.00 24 1012.9
20260507200100 21 299 1.6 0.0 0.00 0.00 0.00 26 1013.0
20260507194607 21 298 1.6 0.0 0.00 0.00 0.00 25 1013.2
20260507193047 21 289 3.2 0.0 0.00 0.00 0.00 25 1013.3